#timestamp,LO_Frequency,Hit,StdDev 
1664488815.7,286047000.6,N
1664488835.6,286046998.1,N
1664488855.4,286046998.9,N
1664488875.2,286046998.9,N
1664488895.1,286046996.6,Y
1664488896.0,286046996.6,P
1664488915.8,286046998.4,N
1664488935.6,286046999.2,N
1664488955.5,286046999.1,N
1664488975.3,286046996.7,Y
1664488995.2,286046998.3,P
1664489015.9,286046999.9,N
1664489035.7,286046998.1,N
1664489055.6,286047000.9,N
1664489075.4,286047002.7,N
1664489095.2,286047000.3,N
1664489115.1,286047001.0,N
1664489116.0,286047001.0,N
1664489135.8,286047001.1,N
1664489155.7,286046999.3,N
1664489175.5,286046999.4,N
1664489195.3,286046999.3,N
1664489215.2,286046996.9,N
1664489235.0,286046997.8,N
1664489235.9,286046997.8,N
1664489255.7,286046998.4,N
1664489275.6,286046998.9,N
1664489295.4,286046998.5,N
1664489345.3,286046999.0,E
1664489355.2,286047000.8,N
1664489375.1,286047000.9,P
1664489376.0,286047000.9,P
1664489395.8,286047000.4,Y
1664489415.6,286047001.1,P
1664489435.5,286046998.4,P
1664489455.3,286046997.1,N
1664489475.1,286046997.3,N
1664489495.9,286046995.3,N
1664489515.7,286046997.5,N
1664489535.6,286046994.9,N
1664489555.4,286046995.7,N
1664489575.2,286046993.5,Y
1664489595.1,286046997.1,P
1664489596.0,286046997.1,P
1664489615.8,286046996.6,P
1664489635.7,286046999.6,N
1664489655.5,286046996.5,Y
1664489675.3,286047000.0,P
1664489695.2,286047000.8,N
1664489715.0,286046998.3,N
1664489715.9,286046998.3,N
1664489735.7,286046998.8,N
1664489755.6,286047001.2,N
1664489775.4,286047002.2,N
1664489795.3,286047002.6,N
1664489815.1,286047001.4,N
1664489835.8,286047004.4,N
1664489855.7,286047001.5,N
1664489875.5,286047002.7,N
1664489895.4,286047000.5,N
1664489915.2,286046999.8,N
1664489935.0,286046999.7,N
1664489935.9,286046999.7,N
1664489955.8,286047002.4,N
1664489975.6,286047002.8,N
1664489995.4,286047002.7,N
1664490015.3,286047002.4,N
1664490035.1,286047003.9,N
1664490055.9,286047004.1,N
1664490075.7,286047004.0,N
1664490095.5,286047001.7,N
1664490115.4,286047001.7,N
1664490135.2,286047000.2,N
1664490155.0,286047002.4,N
1664490155.9,286047002.4,N
1664490175.8,286047001.6,N
1664490195.6,286047001.6,N
1664490215.5,286047002.5,N
1664490235.3,286047001.2,N
1664490255.1,286046998.1,N
1664490275.9,286047000.7,N
1664490295.7,286047000.9,N
1664490315.6,286047000.7,N
1664490335.4,286047001.1,N
1664490355.2,286047001.2,N
1664490375.1,286046998.4,N
1664490376.0,286046998.4,N
1664490395.8,286046998.4,N
1664490415.7,286047000.8,N
1664490435.5,286046999.9,N
1664490455.3,286046999.9,N
1664490475.2,286047002.6,N
1664490495.0,286047002.5,N
1664490495.9,286047002.5,N
1664490515.7,286047002.7,N
1664490535.6,286047000.1,N
1664490555.4,286047001.0,N
1664490575.3,286046998.8,N
1664490595.1,286046999.1,N
1664490596.0,286046999.1,N
1664490615.8,286046998.9,N
1664490635.7,286046998.2,N
1664490655.5,286046999.4,N
1664490675.3,286047000.8,N
1664490695.2,286047000.8,N
1664490715.0,286047000.6,N
1664490715.9,286047000.6,N
1664490735.8,286047000.9,N
1664490755.6,286046999.8,N
1664490775.4,286047000.4,N
1664490795.3,286047001.1,N
1664490815.1,286047000.7,N
1664490835.8,286047000.3,N
1664490855.7,286046999.9,N
1664490875.5,286047000.5,N
1664490895.4,286047000.3,N
1664490915.2,286046999.9,N
1664490935.0,286047000.1,N
1664490935.9,286047000.1,N
1664490955.8,286047000.1,N
1664490975.6,286047000.5,N
1664490995.4,286047000.7,N
1664491015.3,286047000.6,N
1664491035.1,286047000.9,N
1664491055.9,286047000.8,N
1664491075.7,286047000.6,N
1664491095.5,286046998.2,N
1664491115.4,286047000.6,N
1664491135.2,286046998.7,N
1664491155.1,286046999.1,N
1664491156.0,286046999.1,N
1664491175.8,286046999.4,N
1664491195.6,286046998.3,N
1664491215.5,286046998.9,N
1664491235.3,286046999.0,N
1664491255.1,286046998.3,N
1664491275.9,286046998.3,N
1664491295.7,286047001.2,N
1664491315.6,286047001.0,N
1664491335.4,286047000.8,N
1664491355.2,286047000.0,N
1664491375.1,286047000.4,N
1664491376.0,286047000.4,N
1664491395.8,286047000.2,N
1664491415.7,286047002.2,N
1664491435.5,286047002.8,N
1664491455.3,286047002.8,N
1664491475.2,286047002.8,N
1664491495.0,286046999.7,N
1664491495.9,286046999.7,N
1664491515.7,286047002.8,N
1664491535.6,286047002.4,N
1664491555.4,286047002.4,N
1664491575.3,286047002.0,N
1664491595.1,286047002.6,N
1664491596.0,286047002.6,N
1664491615.8,286046999.7,N
1664491635.7,286047000.4,N
1664491655.5,286047002.8,N
1664491675.4,286047002.8,N
1664491695.2,286047002.8,N
1664491715.0,286047002.6,N
1664491715.9,286047002.6,N
1664491735.8,286047002.6,N
1664491755.6,286047002.1,N
1664491775.4,286047002.1,N
1664491795.3,286047000.1,N
1664491815.1,286047002.6,N
1664491835.9,286047001.9,N
1664491855.7,286047002.0,N
1664491875.5,286047002.1,N
1664491895.4,286047002.6,N
1664491915.2,286047000.3,N
1664491935.0,286047000.7,N
1664491935.9,286047000.7,N
1664491955.8,286047000.2,N
1664491975.6,286047001.5,N
1664491995.5,286047002.0,N
1664492015.3,286047004.2,Y
1664492035.1,286047001.5,P
1664492055.9,286047003.5,P
1664492075.7,286047002.2,N
1664492095.6,286047001.4,N
1664492115.4,286047003.5,Y
1664492135.2,286047000.2,P
1664492155.1,286047000.9,N
1664492156.0,286047000.9,N
1664492175.8,286047001.1,N
1664492195.7,286046998.5,N
1664492215.5,286046997.0,N
1664492235.4,286046997.3,N
1664492255.2,286046996.6,N
1664492275.0,286046998.8,N
1664492275.9,286046998.8,N
1664492295.8,286046998.3,N
1664492315.6,286047002.2,N
1664492335.4,286046998.6,N
1664492355.3,286046998.1,N
1664492375.1,286046998.5,N
1664492395.9,286046998.8,N
